Location: Lussas
(44.6119°N, 4.4726°E)
Time: 16:32:01
(UTC+00:00)

ADEOS - Pass Details

Date: 26 November 2020
Orbit: 792 x 795 km, 98.9° (Epoch: 28 January)

Event Time Altitude Azimuth Distance (km) Brightness Sun altitude
Rises 04:13:20 0° 16° (NNE) 3,308 6.9 -27.9°
Reaches altitude 10° 04:15:42 10° 19° (NNE) 2,374 6.2 -27.5°
Maximum altitude 04:20:55 70° 103° (ESE) 845 3.8 -26.6°
Drops below altitude 10° 04:26:07 10° 187° (S) 2,355 6.0 -25.7°
Sets 04:28:26 0° 190° (S) 3,280 6.7 -25.3°
